Temp
-9 -9 -9 -9 -9 -9 -8 -8 -8 -8 -8 -8 -8 -9 -9 -10 -11 -10 -10 -9 -8 -7 -4 -4 -5 -4 -3 -1 -0 -0 -2 -0 -0 -1 -1 0 2 4 5 5 5 5 4 4 3 2 1 4 4 4 4 4 4 4
-8 -8 -8 -8 -8 -8 -8 -7 -8 -8 -8 -8 -9 -9 -10 -11 -10 -10 -10 -9 -8 -7 -5 -4 -5 -5 -3 -2 -1 -0 1 1 1 -1 -0 1 2 4 4 4 5 5 5 5 4 4 4 4 4 3 4 3 4 3
-9 -8 -8 -8 -8 -8 -8 -8 -8 -8 -9 -9 -9 -10 -10 -11 -11 -10 -10 -9 -8 -7 -5 -4 -3 -3 -2 -2 -1 -1 -1 -1 0 1 1 2 2 3 3 4 5 4 5 4 4 4 4 4 3 3 3 3 3 3
-9 -9 -8 -8 -8 -9 -9 -9 -9 -9 -9 -10 -11 -11 -11 -11 -11 -11 -10 -8 -8 -7 -6 -4 -3 -3 -2 -2 -2 -1 -1 -1 -0 1 1 2 2 3 4 4 5 5 4 4 4 4 4 4 3 3 3 3 2 2
-11 -11 -10 -10 -9 -9 -9 -9 -9 -9 -10 -11 -11 -12 -12 -12 -11 -10 -9 -9 -8 -7 -6 -4 -3 -3 -2 -1 -1 -2 -1 -2 -1 0 1 2 2 3 3 3 4 4 5 5 5 5 4 4 3 3 3 2 2 2
-11 -11 -11 -11 -10 -10 -10 -10 -11 -11 -11 -11 -11 -11 -11 -11 -10 -10 -9 -8 -8 -7 -6 -3 -3 -2 -1 -1 -1 -1 -1 -1 -1 -0 1 1 2 2 3 2 3 4 4 5 5 4 4 3 3 2 2 2 1 1
-11 -10 -10 -10 -10 -10 -10 -11 -11 -11 -11 -11 -11 -11 -11 -10 -10 -10 -9 -7 -6 -5 -5 -6 -2 -2 -2 -0 -1 -1 -1 -2 -1 -1 0 1 2 2 2 3 3 3 4 4 4 4 3 3 3 2 2 1 1 1
-10 -10 -10 -10 -9 -9 -10 -11 -11 -11 -11 -11 -11 -11 -11 -10 -10 -9 -8 -8 -6 -6 -6 -5 -3 -2 -1 -1 -1 -1 -1 -2 -1 -1 -0 1 1 2 2 3 2 3 4 4 4 3 3 3 2 2 1 1 1 0
-10 -10 -10 -10 -9 -9 -10 -10 -10 -11 -11 -11 -10 -10 -10 -10 -9 -8 -8 -7 -6 -6 -6 -5 -3 -3 -3 -1 -1 -1 -1 -1 -1 -1 -1 -0 1 1 2 2 3 3 4 4 3 3 3 2 2 2 1 1 1 -0
-10 -10 -10 -9 -9 -9 -9 -9 -9 -10 -10 -10 -9 -10 -9 -9 -8 -8 -7 -7 -5 -5 -5 -4 -3 -3 -1 -1 -2 -1 -1 -1 -1 -1 -1 0 0 1 1 2 3 3 3 3 3 2 2 2 2 2 1 0 -1 -1
-9 -9 -9 -9 -8 -9 -9 -9 -9 -9 -9 -8 -8 -8 -8 -8 -8 -8 -6 -6 -5 -4 -4 -3 -3 -3 -3 -3 -1 -2 -1 -1 -1 -1 0 -1 -1 -0 1 1 1 -1 0 0 -0 -0 1 1 0 -0 -1 -1 -2 -2
-8 -9 -10 -9 -9 -9 -8 -8 -7 -7 -7 -8 -8 -8 -9 -8 -7 -7 -6 -5 -4 -3 -3 -2 -2 -2 -2 -3 -3 -2 -2 -1 -1 -2 -1 -1 -0 0 1 -0 0 0 -0 0 0 0 -0 -1 -1 -2 -2 -3 -3 -4
-9 -9 -9 -9 -9 -9 -8 -8 -8 -7 -7 -6 -7 -8 -6 -6 -5 -5 -5 -4 -4 -3 -3 -3 -2 -3 -3 -2 -3 -2 -2 -2 -3 -2 -2 -1 1 1 1 0 0 0 0 -1 -1 -2 -2 -2 -3 -3 -4 -4 -4 -5
-8 -9 -9 -8 -8 -8 -8 -7 -7 -6 -6 -6 -5 -6 -5 -5 -5 -5 -4 -4 -4 -4 -3 -4 -3 -3 -3 -2 -2 -2 -3 -3 -2 -2 -2 -1 0 0 -0 -0 -1 -2 -3 -3 -3 -3 -3 -4 -4 -5 -5 -6 -6 -8
-8 -8 -6 -7 -7 -7 -7 -6 -6 -5 -5 -5 -5 -5 -6 -6 -5 -4 -3 -3 -2 -4 -3 -3 -3 -3 -2 -2 -2 -3 -3 -3 -4 -4 -4 -2 -2 -2 -3 -4 -4 -4 -4 -4 -4 -5 -5 -5 -6 -6 -7 -8 -8 -9
-5 -5 -5 -5 -5 -5 -5 -6 -5 -4 -4 -6 -7 -6 -6 -5 -5 -5 -4 -4 -4 -3 -3 -4 -3 -4 -3 -4 -4 -5 -5 -6 -6 -5 -5 -5 -5 -5 -5 -5 -5 -5 -5 -5 -6 -6 -7 -7 -8 -8 -8 -9 -9 -10
-4 -4 -4 -4 -6 -5 -4 -5 -5 -5 -6 -7 -7 -6 -6 -6 -5 -5 -5 -4 -4 -4 -4 -4 -4 -5 -5 -5 -6 -7 -8 -8 -7 -7 -6 -6 -6 -6 -6 -6 -7 -7 -7 -7 -7 -8 -8 -8 -9 -9 -10 -10 -11 -11
-4 -4 -4 -4 -4 -5 -4 -4 -4 -7 -8 -8 -7 -7 -7 -6 -6 -5 -6 -5 -4 -5 -4 -4 -5 -6 -7 -9 -10 -9 -9 -9 -8 -7 -7 -7 -7 -7 -7 -7 -8 -8 -8 -8 -9 -9 -9 -9 -10 -11 -11 -11 -12 -12
-4 -4 -4 -4 -4 -4 -4 -6 -6 -9 -9 -9 -8 -8 -7 -7 -7 -7 -6 -5 -5 -5 -5 -5 -7 -9 -10 -10 -9 -9 -9 -9 -9 -8 -8 -8 -8 -8 -9 -9 -9 -9 -9 -9 -10 -10 -10 -11 -11 -11 -12 -12 -12 -13
-5 -4 -4 -5 -4 -4 -5 -8 -8 -9 -10 -10 -9 -8 -8 -8 -7 -7 -6 -6 -6 -5 -6 -10 -11 -11 -10 -10 -10 -9 -9 -9 -10 -9 -9 -9 -9 -9 -9 -10 -10 -10 -10 -10 -11 -11 -11 -11 -12 -12 -12 -13 -13 -14
-4 -5 -5 -5 -5 -5 -6 -9 -9 -10 -10 -10 -9 -8 -8 -10 -9 -8 -7 -7 -6 -8 -11 -12 -12 -11 -11 -10 -10 -10 -10 -10 -10 -10 -10 -10 -10 -10 -10 -10 -11 -11 -11 -11 -12 -12 -12 -13 -13 -13 -14 -14 -14 -15
-3 -5 -5 -5 -4 -4 -8 -8 -8 -9 -10 -10 -10 -10 -10 -10 -9 -9 -10 -7 -9 -12 -12 -13 -12 -12 -12 -12 -11 -11 -10 -10 -10 -10 -10 -11 -11 -11 -11 -11 -12 -12 -13 -13 -13 -13 -13 -14 -14 -14 -15 -15 -16 -16
-5 -4 -4 -4 -5 -8 -8 -8 -8 -8 -10 -10 -10 -9 -10 -10 -10 -10 -11 -12 -13 -14 -14 -13 -13 -13 -13 -13 -13 -13 -12 -12 -12 -12 -12 -12 -12 -12 -13 -13 -13 -13 -14 -14 -14 -15 -15 -15 -15 -16 -16 -16 -17 -17
-4 -2 -4 -5 -7 -9 -9 -9 -9 -9 -10 -10 -10 -11 -11 -11 -12 -11 -12 -13 -14 -14 -15 -14 -14 -13 -13 -13 -13 -13 -13 -13 -13 -13 -14 -14 -14 -14 -14 -14 -15 -15 -15 -16 -16 -16 -17 -17 -17 -17 -17 -18 -18 -19
-3 -5 -6 -7 -8 -9 -9 -9 -9 -10 -11 -11 -11 -12 -13 -13 -12 -14 -14 -15 -15 -15 -15 -15 -15 -15 -15 -15 -14 -14 -14 -14 -14 -14 -15 -15 -15 -15 -15 -15 -16 -16 -16 -17 -17 -17 -18 -18 -18 -19 -19 -20 -20 -21
-4 -7 -7 -8 -9 -9 -10 -11 -11 -11 -11 -12 -13 -13 -13 -13 -14 -15 -15 -15 -16 -15 -15 -15 -15 -15 -15 -15 -15 -15 -15 -15 -15 -15 -16 -16 -16 -16 -16 -17 -17 -17 -18 -18 -18 -19 -19 -20 -20 -20 -21 -21 -21 -22
-9 -10 -9 -9 -10 -10 -10 -11 -11 -11 -12 -13 -13 -13 -14 -14 -14 -15 -15 -16 -16 -16 -16 -16 -16 -16 -16 -16 -16 -17 -17 -17 -17 -17 -17 -17 -17 -18 -18 -18 -18 -19 -19 -19 -20 -20 -21 -21 -21 -21 -22 -22 -23 -23
-10 -11 -10 -10 -10 -10 -11 -11 -11 -12 -13 -13 -13 -13 -14 -14 -14 -15 -15 -16 -16 -17 -17 -17 -17 -17 -17 -17 -18 -18 -18 -18 -18 -18 -18 -19 -19 -19 -19 -20 -20 -20 -20 -21 -21 -21 -21 -21 -22 -22 -23 -23 -24 -25
-10 -11 -11 -11 -11 -11 -11 -12 -12 -13 -13 -13 -13 -14 -14 -14 -15 -15 -16 -16 -17 -17 -18 -18 -18 -18 -18 -18 -18 -19 -19 -19 -19 -19 -19 -20 -20 -20 -20 -21 -21 -21 -21 -21 -22 -22 -22 -22 -23 -23 -24 -25 -25 -26
-11 -11 -11 -11 -11 -12 -12 -13 -13 -13 -13 -13 -14 -14 -14 -15 -15 -16 -17 -17 -18 -18 -18 -19 -19 -19 -19 -19 -19 -19 -20 -20 -20 -20 -20 -21 -21 -21 -21 -21 -21 -21 -22 -22 -22 -23 -23 -24 -24 -25 -26 -26 -27 -28
-12 -12 -12 -12 -12 -13 -13 -13 -13 -14 -14 -14 -15 -15 -15 -16 -16 -17 -18 -18 -18 -19 -19 -19 -19 -20 -20 -20 -20 -20 -20 -21 -21 -21 -21 -21 -21 -21 -21 -22 -22 -22 -22 -22 -23 -23 -24 -24 -25 -25 -26 -26 -27 -28
-12 -12 -12 -13 -13 -13 -14 -14 -14 -14 -14 -15 -15 -16 -17 -17 -18 -18 -18 -19 -19 -19 -20 -20 -20 -20 -20 -21 -21 -21 -21 -21 -21 -21 -21 -21 -22 -22 -22 -22 -22 -22 -23 -23 -23 -23 -24 -25 -25 -26 -26 -27 -27 -28
-13 -13 -13 -13 -14 -14 -14 -14 -15 -15 -15 -16 -17 -18 -18 -18 -19 -19 -19 -20 -20 -20 -20 -21 -21 -21 -21 -21 -21 -21 -21 -21 -21 -21 -21 -21 -22 -22 -22 -22 -23 -23 -23 -23 -23 -24 -24 -25 -25 -26 -27 -27 -28 -28
Height
2710 2711 2714 2719 2728 2739 2750 2760 2773 2788 2804 2818 2830 2841 2853 2863 2873 2883 2898 2912 2921 2928 2933 2939 2947 2953 2963 2972 2976 2986 3000 3002 3011 3015 3017 3020 3022 3023 3027 3029 3030 3035 3040 3042 3044 3046 3044 3044 3045 3045 3045 3044 3045 3047
2719 2718 2722 2727 2736 2744 2755 2766 2781 2793 2807 2819 2830 2841 2850 2861 2872 2884 2896 2910 2922 2926 2932 2933 2940 2948 2954 2967 2979 2985 2987 2992 3000 3008 3011 3014 3016 3016 3019 3023 3026 3029 3032 3036 3039 3036 3037 3037 3038 3039 3039 3041 3042 3043
2736 2736 2738 2741 2748 2757 2767 2778 2789 2799 2810 2820 2830 2840 2852 2863 2873 2884 2898 2912 2919 2924 2930 2935 2942 2950 2955 2960 2971 2975 2980 2989 2993 3001 3008 3011 3011 3013 3014 3019 3022 3023 3026 3029 3032 3031 3031 3032 3033 3034 3035 3037 3038 3040
2749 2750 2753 2757 2763 2770 2778 2786 2795 2804 2813 2822 2832 2842 2853 2864 2873 2882 2893 2907 2919 2924 2928 2934 2940 2946 2951 2957 2962 2968 2978 2983 2990 2998 3002 3005 3006 3008 3011 3014 3015 3018 3021 3023 3023 3024 3026 3027 3028 3030 3032 3034 3035 3037
2761 2762 2764 2767 2772 2777 2783 2790 2798 2807 2816 2825 2835 2845 2855 2865 2875 2886 2899 2907 2916 2929 2931 2934 2937 2943 2946 2952 2957 2964 2971 2978 2984 2991 2994 2998 3001 3005 3005 3008 3010 3012 3014 3016 3014 3018 3021 3023 3025 3026 3027 3029 3031 3032
2773 2774 2776 2778 2782 2786 2790 2795 2803 2812 2821 2830 2839 2849 2858 2868 2880 2892 2903 2912 2915 2925 2930 2934 2937 2941 2943 2945 2950 2957 2966 2972 2978 2983 2988 2992 2995 2999 3000 2999 3004 3007 3009 3010 3010 3013 3015 3017 3019 3021 3022 3023 3025 3026
2784 2785 2787 2789 2791 2795 2801 2807 2814 2822 2830 2839 2847 2856 2865 2875 2884 2893 2901 2906 2915 2925 2929 2935 2934 2935 2938 2943 2946 2952 2961 2966 2972 2977 2981 2985 2990 2992 2992 2990 2998 3001 3004 3005 3006 3008 3009 3011 3012 3015 3016 3018 3019 3020
2794 2796 2797 2799 2802 2805 2811 2816 2821 2828 2836 2845 2854 2862 2872 2881 2891 2899 2908 2914 2920 2927 2931 2932 2931 2934 2935 2939 2943 2949 2956 2963 2967 2971 2975 2978 2982 2985 2983 2983 2991 2995 2997 2998 3000 3001 3004 3006 3007 3009 3010 3011 3012 3013
2802 2804 2806 2808 2811 2814 2818 2821 2825 2832 2841 2851 2862 2872 2879 2886 2893 2902 2910 2917 2922 2928 2930 2930 2930 2932 2935 2937 2943 2949 2952 2958 2962 2964 2969 2974 2975 2975 2976 2980 2986 2988 2990 2992 2994 2996 2998 3000 3001 3002 3003 3004 3005 3006
2810 2812 2814 2817 2820 2823 2827 2830 2835 2841 2849 2855 2866 2875 2880 2889 2902 2906 2915 2916 2918 2922 2924 2924 2927 2931 2935 2937 2937 2946 2947 2952 2955 2958 2964 2966 2965 2970 2974 2977 2980 2981 2984 2987 2990 2992 2993 2994 2994 2995 2995 2996 2997 2998
2819 2822 2824 2827 2829 2832 2837 2843 2847 2852 2857 2864 2872 2880 2889 2896 2902 2908 2911 2912 2911 2915 2917 2922 2925 2927 2932 2931 2935 2939 2939 2945 2948 2952 2957 2957 2958 2964 2970 2972 2975 2975 2978 2981 2984 2987 2987 2986 2985 2987 2988 2989 2990 2990
2826 2828 2831 2833 2837 2842 2847 2852 2856 2863 2871 2876 2879 2886 2894 2903 2910 2914 2911 2908 2909 2912 2915 2918 2922 2923 2925 2928 2934 2933 2933 2939 2940 2944 2949 2950 2950 2956 2961 2965 2967 2968 2971 2973 2974 2976 2977 2977 2978 2980 2980 2980 2981 2982
2830 2833 2839 2842 2844 2849 2855 2860 2863 2868 2874 2880 2888 2893 2897 2901 2906 2906 2903 2905 2907 2910 2916 2920 2921 2920 2922 2927 2931 2930 2930 2934 2938 2939 2944 2946 2949 2952 2954 2957 2960 2962 2964 2966 2968 2969 2970 2971 2971 2972 2973 2971 2972 2973
2840 2844 2844 2848 2852 2855 2861 2862 2868 2874 2880 2886 2890 2894 2894 2895 2897 2898 2901 2903 2906 2909 2912 2916 2919 2922 2922 2923 2926 2928 2930 2933 2935 2939 2940 2943 2946 2949 2950 2952 2955 2957 2960 2962 2963 2964 2964 2964 2965 2965 2965 2965 2966 2967
2847 2849 2851 2854 2857 2860 2864 2867 2871 2877 2883 2888 2895 2894 2894 2895 2896 2899 2902 2904 2906 2908 2912 2915 2917 2921 2922 2924 2925 2928 2930 2930 2933 2937 2938 2940 2942 2944 2946 2948 2951 2954 2956 2957 2958 2958 2958 2958 2958 2959 2960 2961 2962 2964
2855 2857 2860 2863 2866 2869 2872 2875 2880 2883 2887 2890 2894 2898 2900 2902 2903 2904 2906 2907 2909 2912 2915 2918 2920 2923 2925 2925 2927 2928 2930 2933 2937 2937 2939 2939 2941 2943 2945 2948 2949 2950 2952 2953 2953 2954 2955 2956 2956 2957 2958 2959 2959 2961
2866 2867 2868 2871 2873 2876 2877 2880 2884 2885 2889 2896 2901 2903 2905 2906 2908 2909 2909 2911 2913 2916 2917 2919 2921 2923 2926 2928 2930 2931 2934 2936 2937 2939 2939 2940 2941 2944 2946 2947 2948 2949 2950 2950 2952 2953 2953 2954 2955 2956 2956 2957 2958 2959
2873 2874 2875 2878 2880 2882 2884 2885 2886 2894 2898 2903 2904 2907 2908 2909 2910 2911 2913 2914 2916 2917 2919 2921 2923 2925 2926 2930 2933 2935 2936 2937 2936 2936 2937 2939 2941 2943 2945 2946 2948 2948 2949 2950 2951 2952 2952 2953 2953 2954 2955 2955 2955 2955
2876 2879 2881 2883 2885 2887 2888 2891 2893 2899 2906 2908 2909 2910 2911 2911 2912 2913 2914 2916 2917 2919 2921 2921 2923 2926 2929 2932 2934 2935 2937 2937 2938 2940 2941 2942 2942 2944 2945 2946 2947 2948 2949 2949 2950 2951 2951 2951 2952 2952 2951 2951 2950 2949
2880 2881 2883 2885 2886 2887 2887 2897 2899 2903 2911 2914 2915 2915 2915 2915 2918 2917 2917 2917 2918 2920 2921 2926 2929 2933 2935 2936 2937 2939 2940 2941 2942 2943 2944 2945 2945 2946 2946 2946 2946 2946 2947 2948 2948 2948 2948 2948 2948 2947 2946 2945 2944 2943
2884 2886 2887 2888 2890 2893 2894 2899 2903 2910 2914 2916 2918 2919 2918 2922 2922 2921 2920 2920 2920 2921 2926 2931 2935 2937 2938 2939 2941 2942 2942 2943 2944 2946 2945 2946 2946 2945 2944 2945 2945 2945 2945 2945 2945 2945 2945 2944 2943 2942 2940 2939 2937 2935
2889 2890 2892 2893 2893 2893 2899 2904 2909 2912 2917 2920 2922 2923 2924 2925 2926 2925 2928 2926 2924 2930 2934 2938 2939 2940 2941 2943 2943 2943 2943 2944 2944 2944 2944 2944 2943 2943 2943 2943 2943 2943 2942 2942 2942 2941 2940 2939 2937 2935 2934 2932 2930 2927
2897 2898 2897 2898 2900 2905 2912 2913 2915 2917 2920 2924 2925 2926 2927 2928 2928 2930 2931 2931 2934 2937 2939 2941 2942 2943 2943 2944 2944 2943 2943 2943 2943 2943 2943 2943 2942 2942 2942 2942 2941 2940 2940 2938 2937 2936 2935 2933 2931 2929 2927 2924 2921 2918
2903 2900 2900 2903 2907 2912 2916 2917 2919 2920 2924 2926 2928 2929 2931 2932 2934 2934 2935 2937 2939 2941 2942 2943 2943 2944 2944 2944 2944 2943 2943 2943 2943 2942 2942 2941 2940 2940 2940 2939 2938 2937 2936 2934 2933 2931 2929 2927 2924 2921 2918 2914 2911 2907
2905 2906 2909 2911 2914 2918 2919 2921 2922 2925 2927 2930 2931 2933 2934 2935 2936 2937 2939 2941 2942 2943 2944 2944 2945 2945 2945 2945 2945 2944 2944 2943 2943 2942 2941 2940 2939 2938 2937 2935 2934 2932 2930 2928 2926 2923 2920 2917 2914 2911 2907 2903 2899 2896
2906 2910 2914 2917 2919 2920 2923 2926 2928 2930 2932 2932 2935 2937 2938 2939 2939 2940 2941 2942 2943 2944 2944 2945 2945 2945 2945 2944 2944 2943 2943 2942 2941 2939 2938 2937 2935 2934 2932 2930 2928 2926 2923 2920 2917 2914 2911 2907 2904 2900 2896 2892 2887 2883
2913 2919 2920 2921 2923 2925 2927 2930 2932 2933 2934 2936 2938 2939 2940 2940 2940 2942 2942 2943 2944 2945 2944 2944 2944 2945 2944 2943 2942 2941 2940 2939 2937 2936 2934 2932 2930 2928 2926 2924 2921 2919 2916 2912 2909 2906 2902 2898 2894 2890 2885 2880 2874 2869
2919 2923 2926 2928 2928 2930 2931 2932 2934 2935 2937 2939 2939 2940 2940 2941 2942 2942 2942 2943 2943 2943 2943 2943 2942 2942 2940 2939 2938 2937 2935 2934 2932 2930 2928 2927 2925 2922 2920 2917 2914 2911 2907 2903 2900 2895 2891 2886 2882 2877 2872 2867 2862 2856
2924 2927 2930 2932 2933 2933 2935 2936 2937 2938 2939 2940 2940 2940 2940 2940 2941 2940 2941 2941 2940 2940 2940 2939 2938 2937 2936 2935 2934 2932 2931 2929 2928 2926 2924 2921 2919 2917 2913 2910 2906 2903 2899 2895 2890 2886 2881 2876 2871 2866 2860 2855 2850 2845
2930 2933 2935 2935 2936 2937 2939 2940 2940 2940 2940 2940 2940 2939 2939 2939 2939 2939 2938 2938 2938 2937 2936 2935 2934 2933 2932 2931 2930 2928 2927 2925 2923 2921 2918 2915 2912 2909 2906 2902 2898 2895 2891 2887 2884 2879 2873 2868 2862 2856 2851 2846 2841 2836
2935 2937 2938 2938 2939 2940 2941 2941 2941 2941 2941 2940 2939 2939 2939 2938 2937 2936 2936 2935 2935 2934 2934 2933 2932 2931 2929 2928 2926 2924 2922 2920 2917 2914 2911 2908 2905 2902 2899 2895 2892 2888 2884 2880 2876 2871 2865 2859 2855 2850 2845 2840 2835 2830
2938 2939 2940 2940 2941 2942 2942 2942 2941 2941 2940 2939 2938 2937 2936 2935 2935 2935 2934 2933 2933 2932 2931 2930 2929 2928 2926 2924 2922 2919 2917 2915 2912 2909 2906 2903 2899 2896 2893 2890 2886 2882 2879 2875 2870 2864 2859 2854 2849 2845 2840 2835 2830 2826
2939 2940 2941 2941 2941 2941 2941 2941 2939 2938 2938 2936 2935 2934 2933 2933 2933 2933 2932 2931 2931 2930 2929 2927 2926 2924 2922 2920 2918 2915 2913 2910 2907 2904 2901 2898 2895 2892 2889 2885 2881 2878 2874 2870 2865 2860 2855 2850 2845 2841 2836 2831 2827 2823
Wind_Speed
6 13 18 24 29 34 37 42 42 44 46 46 43 43 47 54 56 61 60 68 54 33 23 21 34 44 42 39 38 35 35 42 43 35 23 20 21 27 26 28 33 32 28 26 26 16 16 23 22 26 27 19 17 13
30 23 22 24 28 30 35 34 39 38 46 39 41 43 50 48 58 48 58 60 56 23 31 16 36 36 39 40 43 33 36 36 36 32 29 24 18 19 27 31 33 34 35 29 27 27 27 18 14 21 22 21 11 9
19 22 29 32 34 35 36 36 36 37 36 36 44 48 51 51 50 51 58 55 40 21 28 27 25 22 24 29 38 35 23 22 26 35 29 26 19 28 22 29 28 33 28 35 28 29 28 25 21 18 16 17 16 11
20 23 27 27 29 31 33 33 33 34 35 40 45 45 46 47 47 42 66 42 19 30 32 13 25 27 25 29 36 40 27 24 25 25 37 33 25 21 27 27 31 32 30 33 34 30 23 19 18 17 15 15 15 14
26 27 27 26 25 27 29 31 33 35 36 38 37 42 38 42 40 47 66 33 33 38 25 17 21 24 24 29 28 37 29 27 30 30 36 36 32 26 22 24 33 30 29 31 32 23 22 16 13 16 18 16 16 15
25 26 26 26 25 24 25 30 32 35 34 32 31 32 31 34 49 29 42 41 47 27 19 11 14 22 18 19 26 33 33 34 33 27 32 36 31 30 25 25 32 30 29 21 19 18 16 16 19 17 17 17 18 20
23 25 27 27 26 28 30 33 32 34 33 32 32 33 38 44 36 37 45 28 40 53 41 14 7 12 24 25 23 34 35 32 38 33 32 36 39 28 31 35 34 28 24 23 22 21 21 20 19 19 20 20 21 24
23 22 23 24 26 27 27 26 30 31 33 33 29 28 27 25 22 33 38 41 28 30 33 7 5 4 16 18 26 35 36 35 39 39 34 34 34 35 36 38 36 30 23 26 25 24 22 19 19 20 22 24 23 24
25 25 24 25 27 30 28 23 25 35 32 35 32 28 23 29 37 28 37 44 38 29 15 12 11 8 10 15 27 34 36 38 35 38 36 32 30 28 26 25 25 24 23 24 24 24 24 23 24 25 25 25 26 27
22 23 24 26 27 28 33 32 41 42 40 39 37 34 33 29 37 24 29 16 16 28 24 7 10 16 19 28 10 32 32 27 28 30 28 29 36 40 29 28 24 23 25 20 21 23 26 29 30 30 27 27 29 30
19 21 25 28 30 28 31 33 39 40 37 41 39 29 35 36 31 31 7 10 11 11 23 25 17 18 16 15 16 12 21 22 19 19 32 25 40 35 37 30 29 26 21 21 24 28 31 29 28 26 25 26 29 29
21 23 30 33 31 30 30 30 30 31 34 28 27 30 32 24 16 16 8 7 10 10 9 10 14 18 16 26 17 8 7 13 8 18 23 19 27 30 31 31 27 25 31 31 32 32 31 29 27 25 24 26 26 25
25 23 28 28 33 37 33 32 34 33 41 30 29 33 15 7 11 10 8 6 8 14 17 16 10 1 20 17 16 7 5 6 13 13 7 8 17 18 20 23 28 32 31 30 29 29 29 28 25 24 22 22 23 26
26 26 25 32 35 40 43 44 27 14 19 24 22 16 5 5 5 5 6 8 8 11 14 12 12 7 4 7 6 5 7 10 9 6 6 11 17 21 23 26 26 25 26 26 25 23 18 18 19 19 20 22 21 19
31 35 40 41 44 45 31 18 16 22 25 19 12 5 7 11 12 11 10 9 8 11 18 15 10 10 9 4 6 5 6 4 4 3 3 8 14 16 17 16 17 16 15 15 14 15 16 17 17 16 16 15 12 10
36 36 34 29 30 24 17 16 16 11 22 6 10 17 16 13 14 12 11 11 14 15 15 13 7 6 5 1 2 4 4 5 4 2 2 6 9 9 8 8 7 7 8 11 12 12 11 10 9 10 11 12 9 7
24 26 25 21 18 22 18 17 14 16 11 12 17 16 13 12 11 9 9 15 17 15 11 4 4 3 6 4 4 5 6 6 5 6 6 7 7 5 6 5 5 6 7 7 6 7 8 10 11 10 7 5 6 8
19 22 23 21 15 11 13 11 16 17 27 21 18 13 8 8 5 5 5 6 12 12 8 5 5 4 5 5 10 13 12 11 8 5 4 7 7 7 6 4 5 5 5 4 4 7 9 8 5 4 7 9 12 14
11 14 14 14 12 7 11 18 23 21 23 20 15 12 9 11 8 6 4 6 9 10 7 4 6 13 16 16 15 14 13 11 9 8 5 6 6 5 4 5 5 4 5 5 5 5 4 5 8 10 14 17 20 23
11 9 7 4 5 6 9 18 24 17 23 23 19 17 15 17 16 14 11 6 2 4 5 14 22 19 16 15 14 13 11 9 7 4 3 2 1 1 1 3 5 5 5 5 6 8 10 13 16 19 21 23 24 26
10 10 8 9 9 3 12 16 25 23 25 23 17 14 16 13 12 12 12 12 4 20 29 23 18 16 14 11 8 8 8 8 6 3 1 3 5 6 6 7 8 9 11 12 13 15 17 18 21 23 24 26 28 29
20 13 12 8 11 20 19 25 23 19 20 20 17 17 17 15 14 16 13 10 26 26 21 15 12 10 7 5 4 3 4 5 7 8 9 10 10 11 10 11 11 12 12 14 16 18 19 21 22 24 26 27 27 28
19 21 23 26 25 18 23 21 18 15 10 14 11 12 10 10 10 7 11 20 20 18 14 10 9 7 4 3 2 3 3 4 5 5 6 6 7 8 9 11 12 14 15 16 17 18 19 21 23 25 27 29 31 33
7 14 16 10 11 15 15 16 16 15 15 13 9 11 10 9 8 11 14 13 12 12 8 7 6 4 3 3 3 3 3 4 4 5 6 7 8 10 11 12 14 15 17 19 20 22 24 26 28 30 33 36 38 40
6 11 11 13 11 13 17 16 16 17 16 12 11 9 6 5 5 10 10 11 11 8 6 5 4 3 2 1 2 4 5 6 7 9 10 12 13 15 17 19 20 22 24 26 28 30 32 34 36 37 38 39 39 39
9 9 8 9 12 12 12 16 15 16 11 10 9 9 8 5 3 5 9 9 8 6 4 2 1 2 3 5 6 8 9 11 13 14 16 18 19 20 22 23 25 26 28 30 31 32 34 35 36 37 39 41 43 45
14 16 22 21 20 18 19 17 13 10 10 8 8 5 3 2 2 7 10 9 6 5 4 4 4 6 8 10 11 13 14 15 16 17 18 19 20 21 22 23 24 25 27 29 31 34 36 38 41 43 44 45 45 45
22 23 20 19 17 16 14 12 11 9 8 7 5 4 2 2 1 5 6 6 6 7 7 9 10 11 12 13 14 15 16 16 16 16 16 18 20 21 23 25 27 29 32 34 36 38 39 39 40 40 41 42 41 41
24 21 18 14 12 12 13 14 11 10 8 7 7 6 6 5 3 4 6 8 9 9 10 11 12 13 14 15 14 13 13 14 16 18 19 21 23 25 27 29 30 31 32 33 33 34 35 37 39 40 40 40 39 38
20 17 14 12 12 13 11 9 8 8 7 8 8 9 8 7 7 7 8 8 9 9 10 11 12 12 11 12 13 14 16 18 20 23 24 25 26 27 28 28 29 29 29 29 31 33 36 37 36 35 34 34 34 33
17 13 10 11 11 9 7 6 7 8 9 9 10 10 10 10 10 10 9 10 9 8 7 8 9 11 12 14 16 19 21 22 23 24 24 25 26 26 26 26 26 26 27 29 31 34 33 30 29 29 29 29 29 28
11 10 9 8 7 6 6 7 8 9 11 11 11 12 12 9 6 5 5 6 7 8 8 9 11 14 16 18 19 19 20 21 22 22 22 23 23 23 23 23 23 24 25 28 30 30 29 28 27 28 28 28 27 26
7 6 5 6 6 7 9 11 12 13 13 13 12 9 6 4 5 5 7 7 7 9 12 13 15 16 16 16 17 18 18 18 18 18 18 18 19 20 20 21 21 22 24 26 27 28 28 27 27 27 27 27 26 25
Wind_Direction
108 128 137 154 165 169 174 185 182 178 183 189 195 195 193 199 201 195 198 194 203 224 173 199 212 221 215 216 222 228 228 225 219 224 219 210 230 220 220 220 216 217 212 217 229 235 259 262 246 236 262 278 260 242
80 97 120 148 163 159 164 165 167 174 187 188 187 183 186 184 189 188 193 189 201 218 200 180 197 207 214 227 233 239 233 225 219 217 218 219 229 205 215 220 220 224 231 235 233 243 258 260 268 259 260 252 224 220
78 83 96 108 126 142 150 154 166 174 179 184 177 181 187 191 196 200 196 190 203 233 200 190 190 205 209 208 211 224 228 199 226 222 215 225 228 224 224 227 227 224 231 231 242 257 260 259 255 248 242 243 246 230
109 117 124 132 143 149 152 161 168 173 176 176 176 182 192 197 202 204 192 181 200 215 212 172 195 209 219 217 215 223 225 216 205 218 219 226 230 226 227 234 234 236 236 240 250 255 249 245 239 231 228 230 233 233
99 107 115 126 141 156 166 170 172 175 177 178 181 186 190 192 194 190 187 191 201 202 213 204 200 211 227 232 225 221 210 204 209 221 221 227 232 229 233 240 241 239 243 245 265 258 255 258 250 239 235 239 237 242
104 106 109 114 119 120 126 151 153 148 146 149 159 168 175 179 180 178 191 210 215 207 213 197 221 216 212 225 221 217 208 208 209 223 226 232 234 227 232 242 249 247 254 253 248 248 250 239 239 240 240 242 246 248
106 106 106 107 114 124 128 137 142 148 151 157 162 164 172 175 180 173 186 185 189 200 211 249 218 222 223 232 224 203 208 211 210 224 229 231 233 225 229 233 245 257 250 252 241 233 233 234 236 244 246 249 248 249
109 105 104 105 113 124 128 143 161 163 160 157 159 162 173 179 182 187 195 201 172 199 210 257 229 197 199 203 199 199 206 211 218 227 234 239 241 240 244 249 242 242 250 244 233 232 237 240 244 248 250 248 249 251
116 111 112 109 109 117 121 119 141 161 157 161 160 156 167 186 188 171 193 200 186 208 220 242 249 255 259 200 198 203 207 208 217 226 229 227 219 217 223 229 239 238 246 234 234 235 238 240 245 250 253 253 251 251
113 116 116 118 119 119 112 112 119 134 136 145 138 148 158 178 183 175 191 196 195 204 217 218 242 231 256 253 277 202 203 200 213 217 219 231 234 235 231 226 224 220 228 233 242 240 244 247 250 252 255 250 245 246
116 118 117 125 124 120 118 117 117 124 127 140 149 150 157 171 176 186 190 229 175 183 218 228 238 256 254 258 254 243 189 205 214 225 220 242 233 227 224 227 244 229 225 234 248 257 253 243 244 246 249 251 253 252
113 122 131 131 133 127 127 126 124 124 128 132 137 148 150 150 174 203 230 233 167 172 176 215 226 247 213 219 218 199 157 173 187 205 209 238 235 234 243 243 238 236 240 238 237 239 244 244 243 242 243 246 251 257
131 131 136 141 143 140 132 130 135 114 122 132 124 153 148 145 173 201 212 158 165 167 175 184 201 161 184 194 203 193 147 141 139 170 195 199 202 204 210 218 228 233 234 232 236 240 242 241 243 246 241 243 253 256
134 139 150 147 146 143 144 149 127 118 112 128 142 164 216 175 175 165 139 177 163 163 172 180 177 171 168 130 134 151 144 145 158 202 192 181 193 205 211 218 223 228 234 240 243 244 246 253 263 257 253 245 236 227
151 150 116 131 134 136 136 102 88 97 130 134 149 150 75 100 105 116 137 148 168 161 171 171 170 165 170 171 139 132 160 109 126 166 209 198 202 205 212 214 219 226 233 239 250 261 266 264 261 259 238 228 229 232
111 109 99 95 97 98 106 108 101 118 128 113 84 107 111 124 122 136 143 144 154 155 173 176 169 162 185 156 107 84 97 73 96 125 96 151 156 171 181 197 214 238 249 248 250 253 251 247 238 230 227 233 243 251
111 105 110 107 116 116 135 137 106 80 77 95 92 98 103 116 122 115 125 158 160 163 169 133 125 117 125 117 84 72 82 86 112 128 122 136 146 177 198 221 234 237 243 236 236 238 236 237 235 239 248 263 281 285
122 119 120 126 129 127 96 78 82 96 97 100 100 100 106 103 119 123 134 155 175 183 190 163 128 137 99 95 102 107 98 90 87 105 158 173 173 163 160 188 218 215 218 260 279 263 254 250 246 264 273 280 280 277
128 125 125 132 144 149 94 98 110 98 97 99 95 101 115 103 98 101 142 178 189 201 228 149 84 90 97 107 110 109 99 90 87 90 108 115 109 119 155 191 212 252 288 292 274 254 258 255 259 269 275 279 279 276
105 115 127 132 114 119 102 103 107 107 106 102 109 112 104 75 65 62 54 63 140 198 136 92 95 96 101 107 112 108 103 97 87 89 100 80 27 26 262 277 289 294 292 289 288 286 279 274 272 271 272 272 274 277
125 140 143 160 162 191 107 112 106 110 109 103 104 98 87 84 73 64 63 63 95 109 98 97 97 98 98 106 122 132 138 140 145 149 142 272 298 301 289 286 284 276 271 268 268 269 271 276 278 279 280 281 281 281
92 121 137 127 132 104 106 114 120 119 116 110 103 93 91 86 80 77 79 90 102 94 95 94 96 97 96 114 123 133 177 204 222 235 239 244 258 267 272 272 268 267 271 279 284 286 286 285 285 284 285 285 284 283
99 109 114 111 101 103 107 116 120 117 120 113 105 92 80 74 68 67 88 90 96 95 94 95 95 92 82 66 35 346 316 303 299 296 294 291 289 287 288 290 292 294 295 296 295 295 293 291 290 288 287 287 287 288
96 95 79 71 87 112 121 125 123 122 128 132 124 103 93 93 93 98 103 105 100 98 100 104 101 93 77 57 25 356 343 334 330 325 322 317 312 306 302 299 298 297 296 296 295 294 293 292 291 291 292 294 296 297
71 61 78 80 91 96 100 103 108 116 116 116 111 101 101 110 125 116 120 123 117 120 125 125 116 98 74 7 337 328 325 323 319 316 314 311 309 307 305 304 303 302 301 300 299 297 297 297 297 298 299 299 299 299
70 49 79 86 81 88 102 95 102 102 105 92 97 106 113 119 108 137 149 146 144 146 148 156 195 288 301 308 313 312 311 308 307 304 303 303 302 302 301 301 300 300 300 300 301 301 302 302 302 303 302 302 301 300
86 84 86 87 91 93 95 95 95 91 89 89 97 90 77 76 102 162 164 165 174 191 221 252 278 295 302 304 304 304 306 306 306 306 306 305 305 305 305 305 306 306 306 306 306 306 305 305 304 303 302 302 302 302
108 98 92 88 87 82 83 86 78 68 70 66 60 52 35 23 313 180 192 214 234 255 272 282 291 297 300 302 305 308 310 311 311 311 313 313 314 314 314 312 311 310 309 309 309 310 310 310 310 310 309 308 308 307
102 98 90 87 79 76 71 68 66 61 48 35 23 10 353 340 311 256 253 260 269 277 287 296 299 301 302 306 311 315 317 315 315 315 314 313 313 313 313 313 313 313 313 314 315 315 315 315 315 315 314 313 312 311
96 91 91 85 76 74 69 65 52 33 19 6 356 346 337 328 313 301 293 291 293 296 298 300 302 308 315 316 315 314 315 316 316 315 316 316 315 315 316 316 317 318 319 319 320 319 319 319 320 320 320 320 320 319
100 96 84 75 74 70 56 37 13 357 348 339 335 326 320 313 304 299 300 301 303 308 315 317 317 316 317 316 315 315 315 315 315 316 317 316 317 319 320 320 321 322 323 325 327 328 329 330 331 331 332 332 331 329
97 87 75 64 57 40 19 2 342 331 327 325 321 315 314 309 299 297 296 299 304 310 314 316 315 314 314 314 315 316 316 317 317 317 319 322 323 324 325 326 327 328 331 336 339 340 340 339 338 338 339 339 338 337
99 79 56 32 14 358 343 332 325 317 315 314 313 308 305 293 299 299 301 302 309 313 313 313 313 315 316 316 317 318 320 322 324 326 328 331 333 335 336 337 337 338 340 343 347 350 350 349 346 344 343 343 343 342